• In Russia
  • List of Countries
  • For 7 days
  • Water Temperature
  • Satellite Maps
  • Weather Map
  • Weather Widgets
  • user-avatar
    Login

    Hourly Weather Chesterfield

    Today, 23 January, Tuesday

    Time Temperature Precipitation Wind Pressure Humidity
    00:00 +1°C° 0 mm 6 mps 738 mmHg 73%
    01:00 +1°C° 0.1 mm 6 mps 738 mmHg 74%
    02:00 0°C° 0.1 mm 7 mps 739 mmHg 75%
    03:00 0°C° 0.1 mm 7 mps 740 mmHg 76%
    04:00 -1°C° 0 mm 7 mps 741 mmHg 76%
    05:00 -1°C° 0 mm 7 mps 742 mmHg 76%
    06:00 -1°C° 0 mm 6 mps 743 mmHg 76%
    07:00 -1°C° 0 mm 6 mps 744 mmHg 76%
    08:00 -1°C° 0 mm 6 mps 745 mmHg 75%
    09:00 -2°C° 0 mm 6 mps 746 mmHg 74%
    10:00 -1°C° 0 mm 6 mps 746 mmHg 71%
    11:00 -1°C° 0 mm 6 mps 747 mmHg 68%
    12:00 +1°C° 0 mm 6 mps 748 mmHg 65%
    13:00 +1°C° 0 mm 6 mps 749 mmHg 64%
    14:00 +1°C° 0 mm 5 mps 749 mmHg 64%
    15:00 +1°C° 0 mm 5 mps 749 mmHg 63%
    16:00 +1°C° 0 mm 4 mps 750 mmHg 66%
    17:00 0°C° 0 mm 4 mps 750 mmHg 70%
    18:00 +1°C° 0 mm 3 mps 751 mmHg 74%
    19:00 0°C° 0 mm 3 mps 751 mmHg 76%
    20:00 0°C° 0 mm 3 mps 752 mmHg 78%
    21:00 -1°C° 0 mm 3 mps 753 mmHg 80%
    22:00 -1°C° 0 mm 3 mps 753 mmHg 82%
    23:00 -2°C° 0 mm 2 mps 753 mmHg 84%

    Tomorrow, 24 January, Wednesday

    Time Temperature Precipitation Wind Pressure Humidity
    00:00 -2°C° 0 mm 2 mps 753 mmHg 86%
    01:00 -2°C° 0 mm 2 mps 753 mmHg 87%
    02:00 -3°C° 0 mm 2 mps 753 mmHg 88%
    03:00 -3°C° 0 mm 2 mps 753 mmHg 89%
    04:00 -3°C° 0 mm 2 mps 753 mmHg 88%
    05:00 -3°C° 0 mm 2 mps 754 mmHg 87%
    06:00 -3°C° 0 mm 2 mps 754 mmHg 86%
    07:00 -2°C° 0 mm 2 mps 754 mmHg 81%
    08:00 -2°C° 0 mm 3 mps 755 mmHg 76%
    09:00 -1°C° 0 mm 3 mps 755 mmHg 71%
    10:00 +1°C° 0 mm 3 mps 755 mmHg 66%
    11:00 +2°C° 0 mm 3 mps 755 mmHg 62%
    12:00 +4°C° 0 mm 3 mps 755 mmHg 57%
    13:00 +4°C° 0 mm 3 mps 755 mmHg 57%
    14:00 +5°C° 0 mm 3 mps 754 mmHg 57%
    15:00 +7°C° 0 mm 3 mps 754 mmHg 57%
    16:00 +5°C° 0 mm 2 mps 754 mmHg 64%
    17:00 +4°C° 0 mm 2 mps 755 mmHg 71%
    18:00 +3°C° 0 mm 1 mps 755 mmHg 78%
    19:00 +3°C° 0 mm 1 mps 755 mmHg 80%
    20:00 +3°C° 0 mm 1 mps 755 mmHg 81%
    21:00 +1°C° 0 mm 2 mps 755 mmHg 83%
    22:00 +1°C° 0 mm 2 mps 755 mmHg 84%
    23:00 +1°C° 0 mm 2 mps 755 mmHg 84%

    Day after tomorrow, 25 January, Thursday

    Time Temperature Precipitation Wind Pressure Humidity
    00:00 +1°C° 0 mm 2 mps 755 mmHg 85%
    01:00 +1°C° 0 mm 2 mps 755 mmHg 85%
    02:00 -1°C° 0 mm 2 mps 755 mmHg 85%
    03:00 -1°C° 0 mm 2 mps 755 mmHg 85%
    04:00 +1°C° 0 mm 2 mps 754 mmHg 84%
    05:00 0°C° 0 mm 3 mps 754 mmHg 82%
    06:00 0°C° 0 mm 3 mps 754 mmHg 81%
    07:00 +1°C° 0 mm 3 mps 754 mmHg 75%
    08:00 +1°C° 0 mm 4 mps 754 mmHg 68%
    09:00 +4°C° 0 mm 4 mps 754 mmHg 62%
    10:00 +6°C° 0 mm 4 mps 754 mmHg 56%
    11:00 +8°C° 0 mm 4 mps 754 mmHg 50%
    12:00 +11°C° 0 mm 4 mps 754 mmHg 45%
    13:00 +12°C° 0 mm 4 mps 753 mmHg 44%
    14:00 +12°C° 0 mm 4 mps 753 mmHg 43%
    15:00 +13°C° 0 mm 4 mps 752 mmHg 42%
    16:00 +12°C° 0 mm 4 mps 752 mmHg 49%
    17:00 +10°C° 0 mm 4 mps 752 mmHg 55%
    18:00 +7°C° 0 mm 4 mps 752 mmHg 61%
    19:00 +7°C° 0 mm 4 mps 752 mmHg 63%
    20:00 +6°C° 0 mm 4 mps 752 mmHg 64%
    21:00 +6°C° 0 mm 5 mps 752 mmHg 66%
    22:00 +6°C° 0 mm 5 mps 752 mmHg 66%
    23:00 +5°C° 0 mm 5 mps 752 mmHg 67%

    26 January, Friday

    Time Temperature Precipitation Wind Pressure Humidity
    00:00 +5°C° 0 mm 5 mps 752 mmHg 68%
    01:00 +5°C° 0 mm 5 mps 752 mmHg 67%
    02:00 +5°C° 0 mm 5 mps 752 mmHg 67%
    03:00 +4°C° 0 mm 4 mps 751 mmHg 67%
    04:00 +3°C° 0 mm 5 mps 751 mmHg 64%
    05:00 +3°C° 0 mm 5 mps 751 mmHg 62%
    06:00 +3°C° 0 mm 5 mps 751 mmHg 59%
    07:00 +4°C° 0 mm 6 mps 751 mmHg 56%
    08:00 +5°C° 0 mm 6 mps 750 mmHg 52%
    09:00 +6°C° 0 mm 7 mps 750 mmHg 49%
    10:00 +9°C° 0 mm 7 mps 750 mmHg 46%
    11:00 +10°C° 0 mm 8 mps 750 mmHg 44%
    12:00 +12°C° 0 mm 8 mps 749 mmHg 41%
    13:00 +12°C° 0 mm 7 mps 749 mmHg 44%
    14:00 +12°C° 0 mm 7 mps 748 mmHg 47%
    15:00 +14°C° 0 mm 7 mps 748 mmHg 50%
    16:00 +13°C° 0 mm 6 mps 748 mmHg 57%
    17:00 +12°C° 0 mm 5 mps 748 mmHg 64%
    18:00 +11°C° 0 mm 4 mps 748 mmHg 71%
    19:00 +11°C° 0.2 mm 4 mps 749 mmHg 76%
    20:00 +11°C° 0.2 mm 4 mps 749 mmHg 80%
    21:00 +11°C° 0.2 mm 4 mps 749 mmHg 84%
    22:00 +10°C° 0.4 mm 4 mps 749 mmHg 86%
    23:00 +10°C° 0.4 mm 3 mps 750 mmHg 89%

    27 January, Saturday

    Time Temperature Precipitation Wind Pressure Humidity
    00:00 +10°C° 0.4 mm 3 mps 750 mmHg 91%
    01:00 +9°C° 0.1 mm 3 mps 750 mmHg 92%
    02:00 +8°C° 0.1 mm 3 mps 750 mmHg 92%
    03:00 +7°C° 0.1 mm 2 mps 751 mmHg 92%
    04:00 +6°C° 0 mm 2 mps 751 mmHg 90%
    05:00 +5°C° 0 mm 2 mps 751 mmHg 87%
    06:00 +5°C° 0 mm 1 mps 751 mmHg 84%
    07:00 +6°C° 0 mm 1 mps 752 mmHg 78%
    08:00 +6°C° 0 mm 1 mps 752 mmHg 73%
    09:00 +7°C° 0 mm 1 mps 753 mmHg 68%
    10:00 +8°C° 0 mm 2 mps 753 mmHg 59%
    11:00 +9°C° 0 mm 2 mps 753 mmHg 49%
    12:00 +12°C° 0 mm 2 mps 753 mmHg 40%
    13:00 +12°C° 0 mm 3 mps 752 mmHg 38%
    14:00 +12°C° 0 mm 3 mps 752 mmHg 36%
    15:00 +13°C° 0 mm 4 mps 751 mmHg 34%
    16:00 +11°C° 0 mm 3 mps 752 mmHg 40%
    17:00 +10°C° 0 mm 3 mps 752 mmHg 47%
    18:00 +8°C° 0 mm 2 mps 752 mmHg 53%
    19:00 +8°C° 0 mm 3 mps 753 mmHg 55%
    20:00 +7°C° 0 mm 3 mps 753 mmHg 57%
    21:00 +5°C° 0 mm 3 mps 754 mmHg 59%
    22:00 +5°C° 0 mm 3 mps 754 mmHg 62%
    23:00 +5°C° 0 mm 2 mps 754 mmHg 64%

    28 January, Sunday

    Time Temperature Precipitation Wind Pressure Humidity
    00:00 +4°C° 0 mm 2 mps 754 mmHg 67%
    01:00 +3°C° 0 mm 2 mps 755 mmHg 69%
    02:00 +3°C° 0 mm 2 mps 755 mmHg 71%
    03:00 +2°C° 0 mm 2 mps 755 mmHg 73%
    04:00 +2°C° 0 mm 2 mps 755 mmHg 74%
    05:00 +2°C° 0 mm 2 mps 756 mmHg 75%
    06:00 +2°C° 0 mm 1 mps 756 mmHg 77%
    07:00 +3°C° 0 mm 1 mps 756 mmHg 73%
    08:00 +4°C° 0 mm 1 mps 757 mmHg 69%
    09:00 +5°C° 0 mm 1 mps 757 mmHg 65%
    10:00 +6°C° 0 mm 1 mps 757 mmHg 58%
    11:00 +8°C° 0 mm 1 mps 756 mmHg 50%
    12:00 +10°C° 0 mm 1 mps 756 mmHg 43%
    13:00 +11°C° 0 mm 1 mps 755 mmHg 41%
    14:00 +12°C° 0 mm 2 mps 755 mmHg 39%
    15:00 +11°C° 0 mm 3 mps 754 mmHg 36%
    16:00 +10°C° 0 mm 3 mps 754 mmHg 42%
    17:00 +9°C° 0 mm 2 mps 754 mmHg 47%
    18:00 +8°C° 0 mm 2 mps 754 mmHg 52%
    19:00 +7°C° 0 mm 3 mps 754 mmHg 55%
    20:00 +7°C° 0 mm 3 mps 753 mmHg 57%
    21:00 +7°C° 0 mm 3 mps 753 mmHg 60%
    22:00 +5°C° 0 mm 3 mps 754 mmHg 62%
    23:00 +5°C° 0 mm 4 mps 754 mmHg 65%
    Show more